Time,TemperatureF,DewpointF,PressureIn,WindDirection,WindDirectionDegrees,WindSpeedMPH,WindSpeedGustMPH,Humidity,HourlyPrecipIn,Conditions,Clouds,dailyrainin,SoftwareType,DateUTC
2013-08-04 00:00:00,68.4,67.2,29.96,SW,225,0.0,0.0,96,0.00,,,0.00,Wunderground v.1.15,2013-08-04 04:00:00,
2013-08-04 00:05:00,68.4,67.2,29.96,SW,225,0.0,0.0,96,0.00,,,0.00,Wunderground v.1.15,2013-08-04 04:05:00,
2013-08-04 00:10:00,68.4,67.2,29.96,SW,225,0.0,0.0,96,0.00,,,0.00,Wunderground v.1.15,2013-08-04 04:10:00,
2013-08-04 00:15:00,68.4,67.2,29.96,SW,225,0.0,0.0,96,0.00,,,0.00,Wunderground v.1.15,2013-08-04 04:15:00,
2013-08-04 00:20:00,68.3,67.1,29.96,SW,225,0.0,0.0,96,0.00,,,0.00,Wunderground v.1.15,2013-08-04 04:20:00,
2013-08-04 00:25:00,68.3,67.1,29.96,SW,225,0.0,0.0,96,0.00,,,0.00,Wunderground v.1.15,2013-08-04 04:25:00,
2013-08-04 00:30:00,68.2,67.0,29.96,SW,225,0.0,0.0,96,0.00,,,0.00,Wunderground v.1.15,2013-08-04 04:30:00,
2013-08-04 00:35:00,68.1,66.9,29.96,SW,225,0.0,0.0,96,0.00,,,0.00,Wunderground v.1.15,2013-08-04 04:35:00,
2013-08-04 00:40:00,68.0,66.8,29.96,SW,225,0.0,0.0,96,0.00,,,0.00,Wunderground v.1.15,2013-08-04 04:40:00,
2013-08-04 00:45:00,67.9,66.7,29.96,SW,225,0.0,0.0,96,0.00,,,0.00,Wunderground v.1.15,2013-08-04 04:45:00,
2013-08-04 00:50:00,67.9,66.7,29.96,SW,225,0.0,0.0,96,0.00,,,0.00,Wunderground v.1.15,2013-08-04 04:50:00,
2013-08-04 00:55:00,67.8,66.6,29.96,SW,225,0.0,0.0,96,0.00,,,0.00,Wunderground v.1.15,2013-08-04 04:55:00,
2013-08-04 01:00:00,67.7,66.5,29.96,SW,225,0.0,0.0,96,0.00,,,0.00,Wunderground v.1.15,2013-08-04 05:00:00,
2013-08-04 01:05:00,67.6,66.4,29.96,SW,225,0.0,0.0,96,0.00,,,0.00,Wunderground v.1.15,2013-08-04 05:05:00,
2013-08-04 01:10:00,67.6,66.4,29.96,SW,225,0.0,0.0,96,0.00,,,0.00,Wunderground v.1.15,2013-08-04 05:10:00,
2013-08-04 01:15:00,67.5,66.3,29.96,SW,225,0.0,0.0,96,0.00,,,0.00,Wunderground v.1.15,2013-08-04 05:15:00,
2013-08-04 01:20:00,67.4,66.2,29.96,SW,225,0.0,0.0,96,0.00,,,0.00,Wunderground v.1.15,2013-08-04 05:20:00,
2013-08-04 01:24:00,67.3,66.1,29.96,SW,225,0.0,0.0,96,0.00,,,0.00,Wunderground v.1.15,2013-08-04 05:24:00,
2013-08-04 01:29:00,67.2,66.0,29.96,SW,225,0.0,0.0,96,0.00,,,0.00,Wunderground v.1.15,2013-08-04 05:29:00,
2013-08-04 01:35:00,67.2,66.0,29.96,SW,225,0.0,0.0,96,0.00,,,0.00,Wunderground v.1.15,2013-08-04 05:35:00,
2013-08-04 01:39:00,67.1,66.2,29.96,SW,225,0.0,0.0,97,0.00,,,0.00,Wunderground v.1.15,2013-08-04 05:39:00,
2013-08-04 01:45:00,67.0,66.1,29.96,SW,225,0.0,0.0,97,0.00,,,0.00,Wunderground v.1.15,2013-08-04 05:45:00,
2013-08-04 01:50:00,67.0,66.1,29.96,SW,225,0.0,0.0,97,0.00,,,0.00,Wunderground v.1.15,2013-08-04 05:50:00,
2013-08-04 01:55:00,67.0,66.1,29.96,SW,225,0.0,0.0,97,0.00,,,0.00,Wunderground v.1.15,2013-08-04 05:55:00,
2013-08-04 02:00:00,67.0,66.1,29.96,SW,225,0.0,0.0,97,0.00,,,0.00,Wunderground v.1.15,2013-08-04 06:00:00,
2013-08-04 02:05:00,67.0,66.1,29.95,SW,225,0.0,0.0,97,0.00,,,0.00,Wunderground v.1.15,2013-08-04 06:05:00,
2013-08-04 02:10:00,67.0,66.1,29.95,SW,225,0.0,0.0,97,0.00,,,0.00,Wunderground v.1.15,2013-08-04 06:10:00,
2013-08-04 02:15:00,67.0,66.1,29.95,SW,225,0.0,0.0,97,0.00,,,0.00,Wunderground v.1.15,2013-08-04 06:15:00,
2013-08-04 02:20:00,66.9,66.0,29.95,SW,225,0.0,0.0,97,0.00,,,0.00,Wunderground v.1.15,2013-08-04 06:20:00,
2013-08-04 02:24:00,66.9,66.0,29.95,SW,225,0.0,0.0,97,0.00,,,0.00,Wunderground v.1.15,2013-08-04 06:24:00,
2013-08-04 02:30:00,66.8,65.9,29.94,SW,225,0.0,0.0,97,0.00,,,0.00,Wunderground v.1.15,2013-08-04 06:30:00,
2013-08-04 02:35:00,66.8,65.9,29.94,SW,225,0.0,0.0,97,0.00,,,0.00,Wunderground v.1.15,2013-08-04 06:35:00,
2013-08-04 02:39:00,66.8,65.9,29.94,SW,225,0.0,0.0,97,0.00,,,0.00,Wunderground v.1.15,2013-08-04 06:39:00,
2013-08-04 02:45:00,66.8,65.9,29.93,SW,225,0.0,0.0,97,0.00,,,0.00,Wunderground v.1.15,2013-08-04 06:45:00,
2013-08-04 02:49:00,66.9,66.0,29.93,SW,225,0.0,0.0,97,0.00,,,0.00,Wunderground v.1.15,2013-08-04 06:49:00,
2013-08-04 02:55:00,66.9,66.0,29.93,SW,225,0.0,0.0,97,0.00,,,0.00,Wunderground v.1.15,2013-08-04 06:55:00,
2013-08-04 03:00:00,66.9,66.0,29.93,SW,225,0.0,0.0,97,0.00,,,0.00,Wunderground v.1.15,2013-08-04 07:00:00,
2013-08-04 03:05:00,66.9,66.0,29.93,SW,225,0.0,0.0,97,0.00,,,0.00,Wunderground v.1.15,2013-08-04 07:05:00,
2013-08-04 03:10:00,66.9,66.0,29.93,SW,225,0.0,0.0,97,0.00,,,0.00,Wunderground v.1.15,2013-08-04 07:10:00,
2013-08-04 03:15:00,66.9,66.0,29.93,SW,225,0.0,0.0,97,0.00,,,0.00,Wunderground v.1.15,2013-08-04 07:15:00,
2013-08-04 03:20:00,66.8,65.9,29.93,SW,225,0.0,0.0,97,0.00,,,0.00,Wunderground v.1.15,2013-08-04 07:20:00,
2013-08-04 03:25:00,66.8,65.9,29.93,SW,225,0.0,0.0,97,0.00,,,0.00,Wunderground v.1.15,2013-08-04 07:25:00,
2013-08-04 03:29:00,66.7,65.8,29.93,SW,225,0.0,0.0,97,0.00,,,0.00,Wunderground v.1.15,2013-08-04 07:29:00,
2013-08-04 03:35:00,66.6,65.7,29.93,SW,225,0.0,0.0,97,0.00,,,0.00,Wunderground v.1.15,2013-08-04 07:35:00,
2013-08-04 03:40:00,66.6,65.7,29.93,SW,225,0.0,0.0,97,0.00,,,0.00,Wunderground v.1.15,2013-08-04 07:40:00,
2013-08-04 03:45:00,66.7,65.8,29.93,SW,225,0.0,0.0,97,0.00,,,0.00,Wunderground v.1.15,2013-08-04 07:45:00,
2013-08-04 03:49:00,66.6,65.7,29.92,SW,225,0.0,0.0,97,0.00,,,0.00,Wunderground v.1.15,2013-08-04 07:49:00,
2013-08-04 03:54:00,66.5,65.6,29.92,SW,225,0.0,0.0,97,0.00,,,0.00,Wunderground v.1.15,2013-08-04 07:54:00,
2013-08-04 04:00:00,66.4,65.5,29.92,SW,225,0.0,0.0,97,0.00,,,0.00,Wunderground v.1.15,2013-08-04 08:00:00,
2013-08-04 04:05:00,66.3,65.4,29.92,SW,225,0.0,0.0,97,0.00,,,0.00,Wunderground v.1.15,2013-08-04 08:05:00,
2013-08-04 04:10:00,66.1,65.2,29.93,SW,225,0.0,0.0,97,0.00,,,0.00,Wunderground v.1.15,2013-08-04 08:10:00,
2013-08-04 04:15:00,66.0,65.1,29.93,SW,225,0.0,0.0,97,0.00,,,0.00,Wunderground v.1.15,2013-08-04 08:15:00,
2013-08-04 04:20:00,65.9,65.0,29.93,SW,225,0.0,0.0,97,0.00,,,0.00,Wunderground v.1.15,2013-08-04 08:20:00,
2013-08-04 04:25:00,65.9,65.0,29.93,SW,225,0.0,0.0,97,0.00,,,0.00,Wunderground v.1.15,2013-08-04 08:25:00,
2013-08-04 04:30:00,65.9,65.0,29.92,SW,225,0.0,0.0,97,0.00,,,0.00,Wunderground v.1.15,2013-08-04 08:30:00,
2013-08-04 04:39:00,66.1,65.5,29.93,SW,225,0.0,0.0,98,0.00,,,0.00,Wunderground v.1.15,2013-08-04 08:39:00,
2013-08-04 04:45:00,66.2,65.6,29.93,SW,225,0.0,0.0,98,0.00,,,0.00,Wunderground v.1.15,2013-08-04 08:45:00,
2013-08-04 04:50:00,66.3,65.7,29.93,SW,225,0.0,0.0,98,0.00,,,0.00,Wunderground v.1.15,2013-08-04 08:50:00,
2013-08-04 04:55:00,66.3,65.7,29.93,SW,225,0.0,0.0,98,0.00,,,0.00,Wunderground v.1.15,2013-08-04 08:55:00,
2013-08-04 05:00:00,66.3,65.7,29.93,SW,225,0.0,0.0,98,0.00,,,0.00,Wunderground v.1.15,2013-08-04 09:00:00,
2013-08-04 05:05:00,66.2,65.6,29.93,SW,225,0.0,0.0,98,0.00,,,0.00,Wunderground v.1.15,2013-08-04 09:05:00,
2013-08-04 05:10:00,66.2,65.6,29.93,SW,225,0.0,0.0,98,0.00,,,0.00,Wunderground v.1.15,2013-08-04 09:10:00,
2013-08-04 05:15:00,66.5,65.9,29.92,SW,225,0.0,0.0,98,0.00,,,0.00,Wunderground v.1.15,2013-08-04 09:15:00,
2013-08-04 05:20:00,66.6,66.0,29.93,SW,225,0.0,0.0,98,0.00,,,0.00,Wunderground v.1.15,2013-08-04 09:20:00,
2013-08-04 05:25:00,66.7,66.1,29.92,SW,225,0.0,0.0,98,0.00,,,0.00,Wunderground v.1.15,2013-08-04 09:25:00,
2013-08-04 05:30:00,66.7,66.1,29.93,SW,225,0.0,0.0,98,0.00,,,0.00,Wunderground v.1.15,2013-08-04 09:30:00,
2013-08-04 05:35:00,66.5,65.9,29.93,SW,225,0.0,0.0,98,0.00,,,0.00,Wunderground v.1.15,2013-08-04 09:35:00,
2013-08-04 05:40:00,66.1,65.2,29.93,SW,225,0.0,0.0,97,0.00,,,0.00,Wunderground v.1.15,2013-08-04 09:40:00,
2013-08-04 05:50:00,65.8,65.2,29.93,SW,225,0.0,0.0,98,0.00,,,0.00,Wunderground v.1.15,2013-08-04 09:50:00,
2013-08-04 05:55:00,65.9,65.3,29.93,SW,225,0.0,0.0,98,0.00,,,0.00,Wunderground v.1.15,2013-08-04 09:55:00,
2013-08-04 06:00:00,65.9,65.3,29.93,SW,225,0.0,0.0,98,0.00,,,0.00,Wunderground v.1.15,2013-08-04 10:00:00,
2013-08-04 06:05:00,65.9,65.3,29.93,SW,225,0.0,0.0,98,0.00,,,0.00,Wunderground v.1.15,2013-08-04 10:05:00,
2013-08-04 06:09:00,65.9,65.3,29.94,SW,225,0.0,0.0,98,0.00,,,0.00,Wunderground v.1.15,2013-08-04 10:09:00,
2013-08-04 06:15:00,66.0,65.4,29.94,SW,225,0.0,0.0,98,0.00,,,0.00,Wunderground v.1.15,2013-08-04 10:15:00,
2013-08-04 06:20:00,66.1,65.5,29.94,SW,225,0.0,0.0,98,0.00,,,0.00,Wunderground v.1.15,2013-08-04 10:20:00,
2013-08-04 06:25:00,66.2,65.6,29.94,SW,225,0.0,0.0,98,0.00,,,0.00,Wunderground v.1.15,2013-08-04 10:25:00,
2013-08-04 06:30:00,66.3,65.7,29.94,SW,225,0.0,0.0,98,0.00,,,0.00,Wunderground v.1.15,2013-08-04 10:30:00,
2013-08-04 06:35:00,66.3,65.7,29.94,SW,225,0.0,0.0,98,0.00,,,0.00,Wunderground v.1.15,2013-08-04 10:35:00,
2013-08-04 06:40:00,66.4,65.8,29.94,SW,225,0.0,0.0,98,0.00,,,0.00,Wunderground v.1.15,2013-08-04 10:40:00,
2013-08-04 06:45:00,66.4,65.8,29.94,SW,225,0.0,0.0,98,0.00,,,0.00,Wunderground v.1.15,2013-08-04 10:45:00,
2013-08-04 06:50:00,66.5,65.9,29.94,SW,225,0.0,0.0,98,0.00,,,0.00,Wunderground v.1.15,2013-08-04 10:50:00,
2013-08-04 06:55:00,66.5,65.9,29.94,SW,225,0.0,0.0,98,0.00,,,0.00,Wunderground v.1.15,2013-08-04 10:55:00,
2013-08-04 07:00:00,66.5,65.9,29.94,SW,225,0.0,0.0,98,0.00,,,0.00,Wunderground v.1.15,2013-08-04 11:00:00,
2013-08-04 07:05:00,66.6,66.0,29.94,SW,225,0.0,0.0,98,0.00,,,0.00,Wunderground v.1.15,2013-08-04 11:05:00,
2013-08-04 07:10:00,66.6,66.0,29.94,SW,225,0.0,0.0,98,0.00,,,0.00,Wunderground v.1.15,2013-08-04 11:10:00,
2013-08-04 07:15:00,66.6,66.0,29.94,SW,225,0.0,0.0,98,0.00,,,0.00,Wunderground v.1.15,2013-08-04 11:15:00,
2013-08-04 07:20:00,66.7,66.1,29.93,SW,225,0.0,0.0,98,0.00,,,0.00,Wunderground v.1.15,2013-08-04 11:20:00,
2013-08-04 07:25:00,66.7,66.1,29.93,SW,225,0.0,0.0,98,0.00,,,0.00,Wunderground v.1.15,2013-08-04 11:25:00,
2013-08-04 07:30:00,66.9,66.3,29.94,SW,225,0.0,0.0,98,0.00,,,0.00,Wunderground v.1.15,2013-08-04 11:30:00,
2013-08-04 07:35:00,67.0,66.4,29.94,SW,225,0.0,0.0,98,0.00,,,0.00,Wunderground v.1.15,2013-08-04 11:35:00,
2013-08-04 07:40:00,67.2,66.6,29.94,SW,225,0.0,0.0,98,0.00,,,0.00,Wunderground v.1.15,2013-08-04 11:40:00,
2013-08-04 07:45:00,67.4,67.1,29.94,SW,225,0.0,0.0,99,0.00,,,0.00,Wunderground v.1.15,2013-08-04 11:45:00,
2013-08-04 07:50:00,67.5,67.2,29.94,SW,225,0.0,0.0,99,0.00,,,0.00,Wunderground v.1.15,2013-08-04 11:50:00,
2013-08-04 07:55:00,67.7,67.4,29.95,SW,225,0.0,0.0,99,0.00,,,0.00,Wunderground v.1.15,2013-08-04 11:55:00,
2013-08-04 08:00:00,67.8,67.5,29.95,SW,225,0.0,0.0,99,0.00,,,0.00,Wunderground v.1.15,2013-08-04 12:00:00,
2013-08-04 08:05:00,67.9,67.6,29.95,SW,225,0.0,0.0,99,0.00,,,0.00,Wunderground v.1.15,2013-08-04 12:05:00,
2013-08-04 08:10:00,68.1,67.8,29.95,SW,225,0.0,0.0,99,0.00,,,0.00,Wunderground v.1.15,2013-08-04 12:10:00,
2013-08-04 08:15:00,68.2,67.9,29.95,SW,225,0.0,0.0,99,0.00,,,0.00,Wunderground v.1.15,2013-08-04 12:15:00,
2013-08-04 08:20:00,68.3,68.0,29.95,SW,225,0.0,0.0,99,0.00,,,0.00,Wunderground v.1.15,2013-08-04 12:20:00,
2013-08-04 08:25:00,68.5,68.2,29.95,SW,225,0.0,0.0,99,0.00,,,0.00,Wunderground v.1.15,2013-08-04 12:25:00,
2013-08-04 08:30:00,68.6,68.3,29.95,SW,225,0.0,0.0,99,0.00,,,0.00,Wunderground v.1.15,2013-08-04 12:30:00,
2013-08-04 08:34:00,68.8,68.5,29.95,SW,225,0.0,0.0,99,0.00,,,0.00,Wunderground v.1.15,2013-08-04 12:34:00,
2013-08-04 08:40:00,69.0,68.7,29.95,SW,225,0.0,0.0,99,0.00,,,0.00,Wunderground v.1.15,2013-08-04 12:40:00,
2013-08-04 08:45:00,69.1,68.8,29.95,SW,225,0.0,0.0,99,0.00,,,0.00,Wunderground v.1.15,2013-08-04 12:45:00,
2013-08-04 08:50:00,69.3,69.0,29.95,SW,225,0.0,0.0,99,0.00,,,0.00,Wunderground v.1.15,2013-08-04 12:50:00,
2013-08-04 08:55:00,69.3,69.0,29.95,SW,225,0.0,0.0,99,0.00,,,0.00,Wunderground v.1.15,2013-08-04 12:55:00,
2013-08-04 09:00:00,69.4,69.1,29.95,SW,225,0.0,0.0,99,0.00,,,0.00,Wunderground v.1.15,2013-08-04 13:00:00,
2013-08-04 09:05:00,69.6,69.3,29.96,SW,225,0.0,0.0,99,0.00,,,0.00,Wunderground v.1.15,2013-08-04 13:05:00,
2013-08-04 09:10:00,69.9,69.6,29.95,SW,225,0.0,0.0,99,0.00,,,0.00,Wunderground v.1.15,2013-08-04 13:10:00,
2013-08-04 09:15:00,70.1,69.8,29.95,SW,225,0.0,0.0,99,0.00,,,0.00,Wunderground v.1.15,2013-08-04 13:15:00,
2013-08-04 09:20:00,70.4,70.1,29.95,SW,225,0.0,0.0,99,0.00,,,0.00,Wunderground v.1.15,2013-08-04 13:20:00,
2013-08-04 09:25:00,70.7,70.4,29.95,SW,225,0.0,0.0,99,0.00,,,0.00,Wunderground v.1.15,2013-08-04 13:25:00,
2013-08-04 09:30:00,71.5,71.2,29.95,SW,225,0.0,0.0,99,0.00,,,0.00,Wunderground v.1.15,2013-08-04 13:30:00,
2013-08-04 09:39:00,72.6,72.0,29.94,SW,225,0.0,0.0,98,0.00,,,0.00,Wunderground v.1.15,2013-08-04 13:39:00,
2013-08-04 09:44:00,73.2,72.0,29.95,SW,225,0.0,0.0,96,0.00,,,0.00,Wunderground v.1.15,2013-08-04 13:44:00,
2013-08-04 09:50:00,73.8,72.3,29.95,SW,225,0.0,0.0,95,0.00,,,0.00,Wunderground v.1.15,2013-08-04 13:50:00,
2013-08-04 09:55:00,74.7,72.9,29.94,SW,225,0.0,0.0,94,0.00,,,0.00,Wunderground v.1.15,2013-08-04 13:55:00,
2013-08-04 10:05:00,76.0,71.8,29.94,SW,225,0.0,0.0,87,0.00,,,0.00,Wunderground v.1.15,2013-08-04 14:05:00,
2013-08-04 10:10:00,76.1,71.6,29.94,SW,225,0.0,0.0,86,0.00,,,0.00,Wunderground v.1.15,2013-08-04 14:10:00,
2013-08-04 10:15:00,76.4,72.2,29.94,SW,225,0.0,0.0,87,0.00,,,0.00,Wunderground v.1.15,2013-08-04 14:15:00,
2013-08-04 10:20:00,76.4,71.9,29.94,SW,225,0.0,0.0,86,0.00,,,0.00,Wunderground v.1.15,2013-08-04 14:20:00,
2013-08-04 10:25:00,76.7,72.5,29.94,SW,225,0.0,0.0,87,0.00,,,0.00,Wunderground v.1.15,2013-08-04 14:25:00,
2013-08-04 10:30:00,77.3,72.4,29.94,SW,225,0.0,0.0,85,0.00,,,0.00,Wunderground v.1.15,2013-08-04 14:30:00,
2013-08-04 10:35:00,77.6,71.7,29.94,SW,225,0.0,0.0,82,0.00,,,0.00,Wunderground v.1.15,2013-08-04 14:35:00,
2013-08-04 10:40:00,77.9,72.7,29.94,SW,225,0.0,0.0,84,0.00,,,0.00,Wunderground v.1.15,2013-08-04 14:40:00,
2013-08-04 10:45:00,78.1,71.8,29.94,SW,225,0.0,0.0,81,0.00,,,0.00,Wunderground v.1.15,2013-08-04 14:45:00,
2013-08-04 10:50:00,78.2,71.9,29.93,SW,225,0.0,0.0,81,0.00,,,0.00,Wunderground v.1.15,2013-08-04 14:50:00,
2013-08-04 10:55:00,78.1,72.5,29.93,SW,225,0.0,0.0,83,0.00,,,0.00,Wunderground v.1.15,2013-08-04 14:55:00,
2013-08-04 11:00:00,78.4,72.1,29.93,SW,225,0.0,0.0,81,0.00,,,0.00,Wunderground v.1.15,2013-08-04 15:00:00,
2013-08-04 11:05:00,78.7,73.5,29.93,SW,225,0.0,0.0,84,0.00,,,0.00,Wunderground v.1.15,2013-08-04 15:05:00,
2013-08-04 11:09:00,78.8,72.5,29.93,SW,225,0.0,0.0,81,0.00,,,0.00,Wunderground v.1.15,2013-08-04 15:09:00,
2013-08-04 11:15:00,78.7,72.7,29.93,SW,225,0.0,0.0,82,0.00,,,0.00,Wunderground v.1.15,2013-08-04 15:15:00,
2013-08-04 11:20:00,79.0,72.7,29.93,SW,225,0.0,0.0,81,0.00,,,0.00,Wunderground v.1.15,2013-08-04 15:20:00,
2013-08-04 11:25:00,79.2,72.1,29.94,SW,225,0.0,0.0,79,0.00,,,0.00,Wunderground v.1.15,2013-08-04 15:25:00,
2013-08-04 11:35:00,79.4,71.9,29.94,SW,225,0.0,0.0,78,0.00,,,0.00,Wunderground v.1.15,2013-08-04 15:35:00,
2013-08-04 11:40:00,79.4,72.7,29.94,SW,225,0.0,0.0,80,0.00,,,0.00,Wunderground v.1.15,2013-08-04 15:40:00,
2013-08-04 11:45:00,79.6,72.1,29.94,SW,225,0.0,0.0,78,0.00,,,0.00,Wunderground v.1.15,2013-08-04 15:45:00,
2013-08-04 11:50:00,79.9,73.2,29.94,SW,225,0.0,0.0,80,0.00,,,0.00,Wunderground v.1.15,2013-08-04 15:50:00,
2013-08-04 11:55:00,80.0,72.5,29.94,SW,225,0.0,0.0,78,0.00,,,0.00,Wunderground v.1.15,2013-08-04 15:55:00,
2013-08-04 12:00:00,80.0,72.1,29.94,SW,225,0.0,0.0,77,0.00,,,0.00,Wunderground v.1.15,2013-08-04 16:00:00,
2013-08-04 12:05:00,80.0,72.1,29.94,SW,225,0.0,0.0,77,0.00,,,0.00,Wunderground v.1.15,2013-08-04 16:05:00,
2013-08-04 12:10:00,80.4,72.5,29.94,SW,225,0.0,0.0,77,0.00,,,0.00,Wunderground v.1.15,2013-08-04 16:10:00,
2013-08-04 12:15:00,81.1,72.8,29.93,SW,225,0.0,1.0,76,0.00,,,0.00,Wunderground v.1.15,2013-08-04 16:15:00,
2013-08-04 12:20:00,81.7,73.0,29.93,SW,225,0.0,0.0,75,0.00,,,0.00,Wunderground v.1.15,2013-08-04 16:20:00,
2013-08-04 12:25:00,81.9,71.6,29.93,SW,225,0.0,0.0,71,0.00,,,0.00,Wunderground v.1.15,2013-08-04 16:25:00,
2013-08-04 12:29:00,82.5,72.1,29.93,SW,225,0.0,0.0,71,0.00,,,0.00,Wunderground v.1.15,2013-08-04 16:29:00,
2013-08-04 12:35:00,83.1,73.9,29.92,SW,225,0.0,0.0,74,0.00,,,0.00,Wunderground v.1.15,2013-08-04 16:35:00,
2013-08-04 12:40:00,83.8,73.8,29.92,SW,225,0.0,0.0,72,0.00,,,0.00,Wunderground v.1.15,2013-08-04 16:40:00,
2013-08-04 12:45:00,84.7,74.7,29.92,SW,225,0.0,0.0,72,0.00,,,0.00,Wunderground v.1.15,2013-08-04 16:45:00,
2013-08-04 12:50:00,85.5,74.2,29.92,SW,225,0.0,0.0,69,0.00,,,0.00,Wunderground v.1.15,2013-08-04 16:50:00,
2013-08-04 12:55:00,86.0,74.2,29.92,SW,225,0.0,0.0,68,0.00,,,0.00,Wunderground v.1.15,2013-08-04 16:55:00,
2013-08-04 13:00:00,86.4,74.6,29.92,SW,225,0.0,2.0,68,0.00,,,0.00,Wunderground v.1.15,2013-08-04 17:00:00,
2013-08-04 13:05:00,86.6,74.8,29.92,SW,225,0.0,2.0,68,0.00,,,0.00,Wunderground v.1.15,2013-08-04 17:05:00,
2013-08-04 13:09:00,86.7,74.4,29.91,SW,225,0.0,0.0,67,0.00,,,0.00,Wunderground v.1.15,2013-08-04 17:09:00,
2013-08-04 13:15:00,86.7,74.4,29.92,SW,225,0.0,0.0,67,0.00,,,0.00,Wunderground v.1.15,2013-08-04 17:15:00,
2013-08-04 13:20:00,86.5,73.8,29.91,SW,225,0.0,0.0,66,0.00,,,0.00,Wunderground v.1.15,2013-08-04 17:20:00,
2013-08-04 13:25:00,86.7,73.1,29.91,SW,225,0.0,1.0,64,0.00,,,0.00,Wunderground v.1.15,2013-08-04 17:25:00,
2013-08-04 13:30:00,86.2,72.6,29.91,SW,225,0.0,0.0,64,0.00,,,0.00,Wunderground v.1.15,2013-08-04 17:30:00,
2013-08-04 13:35:00,85.9,73.2,29.90,SW,225,0.0,0.0,66,0.00,,,0.00,Wunderground v.1.15,2013-08-04 17:35:00,
2013-08-04 13:40:00,85.6,73.8,29.90,SW,225,0.0,0.0,68,0.00,,,0.00,Wunderground v.1.15,2013-08-04 17:40:00,
2013-08-04 13:45:00,85.8,73.6,29.90,SW,225,0.0,0.0,67,0.00,,,0.00,Wunderground v.1.15,2013-08-04 17:45:00,
2013-08-04 13:50:00,85.8,72.7,29.90,SW,225,0.0,0.0,65,0.00,,,0.00,Wunderground v.1.15,2013-08-04 17:50:00,
2013-08-04 13:55:00,85.8,72.7,29.90,SW,225,0.0,0.0,65,0.00,,,0.00,Wunderground v.1.15,2013-08-04 17:55:00,
2013-08-04 14:00:00,85.7,73.9,29.91,SW,225,0.0,0.0,68,0.00,,,0.00,Wunderground v.1.15,2013-08-04 18:00:00,
2013-08-04 14:05:00,85.8,73.1,29.91,SW,225,0.0,0.0,66,0.00,,,0.00,Wunderground v.1.15,2013-08-04 18:05:00,
2013-08-04 14:10:00,85.8,74.0,29.91,SW,225,0.0,0.0,68,0.00,,,0.00,Wunderground v.1.15,2013-08-04 18:10:00,
2013-08-04 14:15:00,85.4,72.3,29.91,SW,225,0.0,0.0,65,0.00,,,0.00,Wunderground v.1.15,2013-08-04 18:15:00,
2013-08-04 14:19:00,85.0,72.4,29.91,SW,225,0.0,0.0,66,0.00,,,0.00,Wunderground v.1.15,2013-08-04 18:19:00,
2013-08-04 14:25:00,84.9,73.2,29.91,SW,225,0.0,0.0,68,0.00,,,0.00,Wunderground v.1.15,2013-08-04 18:25:00,
2013-08-04 14:29:00,85.0,73.3,29.91,SW,225,0.0,0.0,68,0.00,,,0.00,Wunderground v.1.15,2013-08-04 18:29:00,
2013-08-04 14:35:00,84.8,72.2,29.91,SW,225,0.0,0.0,66,0.00,,,0.00,Wunderground v.1.15,2013-08-04 18:35:00,
2013-08-04 14:40:00,84.3,71.2,29.91,SW,225,0.0,0.0,65,0.00,,,0.00,Wunderground v.1.15,2013-08-04 18:40:00,
2013-08-04 14:45:00,83.6,71.9,29.91,SW,225,0.0,0.0,68,0.00,,,0.00,Wunderground v.1.15,2013-08-04 18:45:00,
2013-08-04 14:50:00,83.5,73.1,29.91,SW,225,0.0,0.0,71,0.00,,,0.00,Wunderground v.1.15,2013-08-04 18:50:00,
2013-08-04 14:54:00,83.9,73.5,29.91,SW,225,0.0,0.0,71,0.00,,,0.00,Wunderground v.1.15,2013-08-04 18:54:00,
2013-08-04 15:00:00,84.5,73.6,29.90,SW,225,0.0,0.0,70,0.00,,,0.00,Wunderground v.1.15,2013-08-04 19:00:00,
2013-08-04 15:05:00,84.6,72.4,29.90,SW,225,0.0,0.0,67,0.00,,,0.00,Wunderground v.1.15,2013-08-04 19:05:00,
2013-08-04 15:10:00,84.2,72.5,29.90,SW,225,0.0,0.0,68,0.00,,,0.00,Wunderground v.1.15,2013-08-04 19:10:00,
2013-08-04 15:15:00,84.0,72.7,29.90,SW,225,0.0,1.0,69,0.00,,,0.00,Wunderground v.1.15,2013-08-04 19:15:00,
2013-08-04 15:20:00,83.9,72.6,29.90,SW,225,0.0,0.0,69,0.00,,,0.00,Wunderground v.1.15,2013-08-04 19:20:00,
2013-08-04 15:25:00,83.9,73.1,29.91,SW,225,0.0,0.0,70,0.00,,,0.00,Wunderground v.1.15,2013-08-04 19:25:00,
2013-08-04 15:30:00,84.1,72.8,29.90,SW,225,0.0,0.0,69,0.00,,,0.00,Wunderground v.1.15,2013-08-04 19:30:00,
2013-08-04 15:35:00,84.2,72.5,29.90,SW,225,0.0,0.0,68,0.00,,,0.00,Wunderground v.1.15,2013-08-04 19:35:00,
2013-08-04 15:40:00,84.1,72.4,29.90,SW,225,0.0,0.0,68,0.00,,,0.00,Wunderground v.1.15,2013-08-04 19:40:00,
2013-08-04 15:45:00,84.1,72.4,29.90,SW,225,0.0,0.0,68,0.00,,,0.00,Wunderground v.1.15,2013-08-04 19:45:00,
2013-08-04 15:50:00,83.9,72.6,29.90,SW,225,0.0,0.0,69,0.00,,,0.00,Wunderground v.1.15,2013-08-04 19:50:00,
2013-08-04 15:55:00,83.7,72.4,29.90,SW,225,0.0,0.0,69,0.00,,,0.00,Wunderground v.1.15,2013-08-04 19:55:00,
2013-08-04 16:00:00,83.8,73.0,29.90,SW,225,0.0,0.0,70,0.00,,,0.00,Wunderground v.1.15,2013-08-04 20:00:00,
2013-08-04 16:05:00,84.5,72.8,29.90,SW,225,0.0,0.0,68,0.00,,,0.00,Wunderground v.1.15,2013-08-04 20:05:00,
2013-08-04 16:10:00,85.4,73.2,29.89,SW,225,0.0,0.0,67,0.00,,,0.00,Wunderground v.1.15,2013-08-04 20:10:00,
2013-08-04 16:15:00,86.2,74.0,29.90,SW,225,0.0,0.0,67,0.00,,,0.00,Wunderground v.1.15,2013-08-04 20:15:00,
2013-08-04 16:20:00,86.7,74.0,29.89,SW,225,0.0,0.0,66,0.00,,,0.00,Wunderground v.1.15,2013-08-04 20:20:00,
2013-08-04 16:25:00,87.0,73.3,29.90,SW,225,0.0,0.0,64,0.00,,,0.00,Wunderground v.1.15,2013-08-04 20:25:00,
2013-08-04 16:30:00,87.1,73.9,29.90,SW,225,0.0,0.0,65,0.00,,,0.00,Wunderground v.1.15,2013-08-04 20:30:00,
2013-08-04 16:35:00,87.0,72.4,29.89,WSW,238,0.0,0.0,62,0.00,,,0.00,Wunderground v.1.15,2013-08-04 20:35:00,
2013-08-04 16:39:00,86.6,72.5,29.89,WSW,238,0.0,0.0,63,0.00,,,0.00,Wunderground v.1.15,2013-08-04 20:39:00,
2013-08-04 16:45:00,86.5,75.1,29.89,WSW,237,0.0,0.0,69,0.00,,,0.00,Wunderground v.1.15,2013-08-04 20:45:00,
2013-08-04 16:50:00,86.6,73.0,29.89,WSW,238,0.0,0.0,64,0.00,,,0.00,Wunderground v.1.15,2013-08-04 20:50:00,
2013-08-04 16:55:00,86.3,72.7,29.89,WSW,238,0.0,0.0,64,0.00,,,0.00,Wunderground v.1.15,2013-08-04 20:55:00,
2013-08-04 17:00:00,85.9,72.8,29.89,WSW,238,0.0,0.0,65,0.00,,,0.00,Wunderground v.1.15,2013-08-04 21:00:00,
2013-08-04 17:05:00,85.3,72.6,29.89,WSW,237,0.0,0.0,66,0.00,,,0.00,Wunderground v.1.15,2013-08-04 21:05:00,
2013-08-04 17:15:00,85.1,71.5,29.89,WSW,238,0.0,0.0,64,0.00,,,0.00,Wunderground v.1.15,2013-08-04 21:15:00,
2013-08-04 17:20:00,84.8,71.3,29.89,WSW,237,0.0,0.0,64,0.00,,,0.00,Wunderground v.1.15,2013-08-04 21:20:00,
2013-08-04 17:25:00,84.6,73.3,29.89,WSW,237,0.0,0.0,69,0.00,,,0.00,Wunderground v.1.15,2013-08-04 21:25:00,
2013-08-04 17:30:00,84.0,73.2,29.89,WSW,238,0.0,0.0,70,0.00,,,0.00,Wunderground v.1.15,2013-08-04 21:30:00,
2013-08-04 17:35:00,83.6,73.2,29.89,WSW,237,0.0,0.0,71,0.00,,,0.00,Wunderground v.1.15,2013-08-04 21:35:00,
2013-08-04 17:40:00,83.6,73.2,29.89,WSW,238,0.0,0.0,71,0.00,,,0.00,Wunderground v.1.15,2013-08-04 21:40:00,
2013-08-04 17:45:00,83.7,71.6,29.89,WSW,238,0.0,0.0,67,0.00,,,0.00,Wunderground v.1.15,2013-08-04 21:45:00,
2013-08-04 17:50:00,84.2,72.0,29.89,WSW,237,0.0,0.0,67,0.00,,,0.00,Wunderground v.1.15,2013-08-04 21:50:00,
2013-08-04 17:55:00,84.4,71.8,29.89,WSW,237,0.0,0.0,66,0.00,,,0.00,Wunderground v.1.15,2013-08-04 21:55:00,
2013-08-04 17:59:00,84.3,71.7,29.89,WSW,237,0.0,0.0,66,0.00,,,0.00,Wunderground v.1.15,2013-08-04 21:59:00,
2013-08-04 18:05:00,84.3,70.3,29.89,WSW,237,0.0,0.0,63,0.00,,,0.00,Wunderground v.1.15,2013-08-04 22:05:00,
2013-08-04 18:10:00,84.0,71.0,29.89,WSW,238,0.0,0.0,65,0.00,,,0.00,Wunderground v.1.15,2013-08-04 22:10:00,
2013-08-04 18:15:00,83.7,71.1,29.88,WSW,238,0.0,0.0,66,0.00,,,0.00,Wunderground v.1.15,2013-08-04 22:15:00,
2013-08-04 18:19:00,83.5,71.4,29.88,WSW,238,0.0,0.0,67,0.00,,,0.00,Wunderground v.1.15,2013-08-04 22:19:00,
2013-08-04 18:25:00,83.1,71.9,29.88,WSW,238,0.0,0.0,69,0.00,,,0.00,Wunderground v.1.15,2013-08-04 22:25:00,
2013-08-04 18:30:00,82.7,71.1,29.88,WSW,237,0.0,0.0,68,0.00,,,0.00,Wunderground v.1.15,2013-08-04 22:30:00,
2013-08-04 18:35:00,82.2,71.4,29.88,WSW,238,0.0,0.0,70,0.00,,,0.00,Wunderground v.1.15,2013-08-04 22:35:00,
2013-08-04 18:40:00,81.8,71.5,29.88,WSW,238,0.0,0.0,71,0.00,,,0.00,Wunderground v.1.15,2013-08-04 22:40:00,
2013-08-04 18:45:00,81.3,70.2,29.88,WSW,238,0.0,0.0,69,0.00,,,0.00,Wunderground v.1.15,2013-08-04 22:45:00,
2013-08-04 18:50:00,80.7,70.8,29.89,WSW,238,0.0,0.0,72,0.00,,,0.00,Wunderground v.1.15,2013-08-04 22:50:00,
2013-08-04 18:55:00,80.2,70.8,29.89,WSW,237,0.0,0.0,73,0.00,,,0.00,Wunderground v.1.15,2013-08-04 22:55:00,
2013-08-04 19:00:00,79.8,70.8,29.89,WSW,238,0.0,0.0,74,0.00,,,0.00,Wunderground v.1.15,2013-08-04 23:00:00,
2013-08-04 19:05:00,79.5,70.9,29.89,WSW,238,0.0,0.0,75,0.00,,,0.00,Wunderground v.1.15,2013-08-04 23:05:00,
2013-08-04 19:15:00,78.7,70.5,29.90,WSW,237,0.0,0.0,76,0.00,,,0.00,Wunderground v.1.15,2013-08-04 23:15:00,
2013-08-04 19:20:00,78.6,70.8,29.90,WSW,238,0.0,0.0,77,0.00,,,0.00,Wunderground v.1.15,2013-08-04 23:20:00,
2013-08-04 19:30:00,77.9,69.7,29.91,WSW,237,0.0,0.0,76,0.00,,,0.00,Wunderground v.1.15,2013-08-04 23:30:00,
2013-08-04 19:35:00,77.6,69.4,29.91,WSW,237,0.0,0.0,76,0.00,,,0.00,Wunderground v.1.15,2013-08-04 23:35:00,
2013-08-04 19:40:00,77.2,69.4,29.90,WSW,238,0.0,0.0,77,0.00,,,0.00,Wunderground v.1.15,2013-08-04 23:40:00,
2013-08-04 19:45:00,76.8,69.0,29.91,WSW,237,0.0,0.0,77,0.00,,,0.00,Wunderground v.1.15,2013-08-04 23:45:00,
2013-08-04 19:50:00,76.4,69.0,29.91,WSW,238,0.0,0.0,78,0.00,,,0.00,Wunderground v.1.15,2013-08-04 23:50:00,
2013-08-04 20:00:00,75.5,68.5,29.90,WSW,238,0.0,0.0,79,0.00,,,0.00,Wunderground v.1.15,2013-08-05 00:00:00,
2013-08-04 20:05:00,74.9,67.9,29.91,WSW,238,0.0,0.0,79,0.00,,,0.00,Wunderground v.1.15,2013-08-05 00:05:00,
2013-08-04 20:10:00,74.3,67.0,29.91,WSW,237,0.0,0.0,78,0.00,,,0.00,Wunderground v.1.15,2013-08-05 00:10:00,
2013-08-04 20:15:00,73.7,66.4,29.91,WSW,238,0.0,0.0,78,0.00,,,0.00,Wunderground v.1.15,2013-08-05 00:15:00,
2013-08-04 20:20:00,73.1,66.2,29.91,WSW,238,0.0,0.0,79,0.00,,,0.00,Wunderground v.1.15,2013-08-05 00:20:00,
2013-08-04 20:24:00,72.7,65.4,29.91,WSW,238,0.0,0.0,78,0.00,,,0.00,Wunderground v.1.15,2013-08-05 00:24:00,
2013-08-04 20:30:00,72.3,65.1,29.91,WSW,238,0.0,0.0,78,0.00,,,0.00,Wunderground v.1.15,2013-08-05 00:30:00,
2013-08-04 20:35:00,72.0,63.6,29.91,WSW,238,0.0,0.0,75,0.00,,,0.00,Wunderground v.1.15,2013-08-05 00:35:00,
2013-08-04 20:45:00,71.5,63.9,29.92,WSW,238,0.0,0.0,77,0.00,,,0.00,Wunderground v.1.15,2013-08-05 00:45:00,
2013-08-04 20:50:00,71.3,63.7,29.92,WSW,237,0.0,0.0,77,0.00,,,0.00,Wunderground v.1.15,2013-08-05 00:50:00,
2013-08-04 20:55:00,71.0,63.1,29.92,WSW,238,0.0,0.0,76,0.00,,,0.00,Wunderground v.1.15,2013-08-05 00:55:00,
2013-08-04 21:00:00,70.7,63.1,29.92,WSW,237,0.0,0.0,77,0.00,,,0.00,Wunderground v.1.15,2013-08-05 01:00:00,
2013-08-04 21:05:00,70.3,62.4,29.92,WSW,237,0.0,0.0,76,0.00,,,0.00,Wunderground v.1.15,2013-08-05 01:05:00,
2013-08-04 21:10:00,70.1,61.0,29.92,WSW,237,0.0,0.0,73,0.00,,,0.00,Wunderground v.1.15,2013-08-05 01:10:00,
2013-08-04 21:15:00,70.1,61.4,29.92,WSW,238,0.0,0.0,74,0.00,,,0.00,Wunderground v.1.15,2013-08-05 01:15:00,
2013-08-04 21:24:00,70.0,61.3,29.93,WSW,237,0.0,0.0,74,0.00,,,0.00,Wunderground v.1.15,2013-08-05 01:24:00,
2013-08-04 21:30:00,69.9,60.8,29.93,WSW,238,0.0,0.0,73,0.00,,,0.00,Wunderground v.1.15,2013-08-05 01:30:00,
2013-08-04 21:35:00,69.9,60.8,29.93,WSW,237,0.0,0.0,73,0.00,,,0.00,Wunderground v.1.15,2013-08-05 01:35:00,
2013-08-04 21:40:00,69.7,61.4,29.93,WSW,238,0.0,0.0,75,0.00,,,0.00,Wunderground v.1.15,2013-08-05 01:40:00,
2013-08-04 21:45:00,69.5,61.2,29.94,WSW,238,0.0,0.0,75,0.00,,,0.00,Wunderground v.1.15,2013-08-05 01:45:00,
2013-08-04 21:55:00,68.9,61.0,29.94,WSW,238,0.0,0.0,76,0.00,,,0.00,Wunderground v.1.15,2013-08-05 01:55:00,
2013-08-04 22:00:00,68.6,60.7,29.94,WSW,238,0.0,0.0,76,0.00,,,0.00,Wunderground v.1.15,2013-08-05 02:00:00,
2013-08-04 22:05:00,68.4,61.3,29.94,WSW,238,0.0,0.0,78,0.00,,,0.00,Wunderground v.1.15,2013-08-05 02:05:00,
2013-08-04 22:14:00,67.8,61.0,29.94,WSW,238,0.0,0.0,79,0.00,,,0.00,Wunderground v.1.15,2013-08-05 02:14:00,
2013-08-04 22:20:00,67.6,60.9,29.94,WSW,238,0.0,0.0,79,0.00,,,0.00,Wunderground v.1.15,2013-08-05 02:20:00,
2013-08-04 22:25:00,67.4,60.3,29.94,WSW,238,0.0,0.0,78,0.00,,,0.00,Wunderground v.1.15,2013-08-05 02:25:00,
2013-08-04 22:30:00,67.3,60.2,29.95,WSW,237,0.0,0.0,78,0.00,,,0.00,Wunderground v.1.15,2013-08-05 02:30:00,
2013-08-04 22:35:00,67.4,59.9,29.95,WSW,238,0.0,0.0,77,0.00,,,0.00,Wunderground v.1.15,2013-08-05 02:35:00,
2013-08-04 22:40:00,67.6,59.4,29.95,WSW,238,0.0,0.0,75,0.00,,,0.00,Wunderground v.1.15,2013-08-05 02:40:00,
2013-08-04 22:45:00,67.9,59.7,29.95,WSW,238,0.0,0.0,75,0.00,,,0.00,Wunderground v.1.15,2013-08-05 02:45:00,
2013-08-04 22:50:00,68.2,59.6,29.95,WSW,238,0.0,0.0,74,0.00,,,0.00,Wunderground v.1.15,2013-08-05 02:50:00,
2013-08-04 22:55:00,68.4,60.9,29.95,WSW,238,0.0,0.0,77,0.00,,,0.00,Wunderground v.1.15,2013-08-05 02:55:00,
2013-08-04 23:00:00,68.4,61.3,29.95,WSW,237,0.0,0.0,78,0.00,,,0.00,Wunderground v.1.15,2013-08-05 03:00:00,
2013-08-04 23:05:00,67.9,60.8,29.95,WSW,238,0.0,0.0,78,0.00,,,0.00,Wunderground v.1.15,2013-08-05 03:05:00,
2013-08-04 23:10:00,67.2,60.8,29.96,WSW,237,0.0,0.0,80,0.00,,,0.00,Wunderground v.1.15,2013-08-05 03:10:00,
2013-08-04 23:15:00,66.6,60.6,29.96,WSW,238,0.0,0.0,81,0.00,,,0.00,Wunderground v.1.15,2013-08-05 03:15:00,
2013-08-04 23:20:00,65.9,60.6,29.96,WSW,238,0.0,0.0,83,0.00,,,0.00,Wunderground v.1.15,2013-08-05 03:20:00,
2013-08-04 23:25:00,65.4,60.4,29.96,WSW,238,0.0,0.0,84,0.00,,,0.00,Wunderground v.1.15,2013-08-05 03:25:00,
2013-08-04 23:30:00,65.2,61.2,29.97,WSW,238,0.0,0.0,87,0.00,,,0.00,Wunderground v.1.15,2013-08-05 03:30:00,
2013-08-04 23:35:00,65.1,61.5,29.97,WSW,237,0.0,0.0,88,0.00,,,0.00,Wunderground v.1.15,2013-08-05 03:35:00,
2013-08-04 23:40:00,65.0,61.7,29.96,WSW,237,0.0,0.0,89,0.00,,,0.00,Wunderground v.1.15,2013-08-05 03:40:00,
2013-08-04 23:50:00,64.7,61.1,29.97,WSW,238,0.0,0.0,88,0.00,,,0.00,Wunderground v.1.15,2013-08-05 03:50:00,
2013-08-04 23:55:00,64.5,61.2,29.96,WSW,238,0.0,0.0,89,0.00,,,0.00,Wunderground v.1.15,2013-08-05 03:55:00,